JST707 YMML-YMHB

Flight info

Callsign JST707
Flight time 0h 59m
Altitude 35000
Route ML H169 IRSOM V33 TASUM
Aircraft A21N/M-SDE3FGHIRWY/LB1

Departure

Time 2026-04-20 04:32
Airport Melbourne Airport (YMML)

Arrival

Time 2026-04-20 05:31
Airport Hobart International Airport (YMHB)
Time Latitude Longitude Altitude Speed Heading
2026-04-20 03:35 -37.67629 144.84845 442 ft 0 kts 352°
2026-04-20 04:18 -37.67639 144.84847 442 ft 2 kts 349°
2026-04-20 04:18 -37.67654 144.84850 442 ft 2 kts 352°
2026-04-20 04:18 -37.67669 144.84853 442 ft 2 kts 351°
2026-04-20 04:19 -37.67684 144.84854 442 ft 2 kts 352°
2026-04-20 04:19 -37.67699 144.84857 442 ft 2 kts 352°
2026-04-20 04:19 -37.67710 144.84860 442 ft 0 kts 352°
2026-04-20 04:19 -37.67723 144.84863 442 ft 2 kts 326°
2026-04-20 04:20 -37.67728 144.84868 442 ft 0 kts 313°
2026-04-20 04:20 -37.67720 144.84854 442 ft 3 kts 286°
2026-04-20 04:20 -37.67723 144.84814 442 ft 7 kts 262°
2026-04-20 04:20 -37.67730 144.84747 442 ft 7 kts 262°
2026-04-20 04:21 -37.67737 144.84691 442 ft 4 kts 262°
2026-04-20 04:21 -37.67739 144.84676 442 ft 0 kts 262°
2026-04-20 04:24 -37.67739 144.84672 442 ft 0 kts 262°
2026-04-20 04:24 -37.67740 144.84663 442 ft 1 kts 262°
2026-04-20 04:24 -37.67742 144.84644 442 ft 3 kts 260°
2026-04-20 04:24 -37.67757 144.84619 442 ft 4 kts 215°
2026-04-20 04:25 -37.67785 144.84593 442 ft 5 kts 215°
2026-04-20 04:25 -37.67818 144.84558 442 ft 6 kts 243°
2026-04-20 04:25 -37.67828 144.84497 442 ft 7 kts 262°
2026-04-20 04:25 -37.67833 144.84430 442 ft 7 kts 274°
2026-04-20 04:26 -37.67799 144.84381 442 ft 8 kts 343°
2026-04-20 04:26 -37.67740 144.84369 442 ft 8 kts 352°
2026-04-20 04:26 -37.67678 144.84358 442 ft 9 kts 351°
2026-04-20 04:26 -37.67612 144.84345 442 ft 9 kts 351°
2026-04-20 04:27 -37.67543 144.84332 442 ft 10 kts 352°
2026-04-20 04:27 -37.67472 144.84319 442 ft 10 kts 351°
2026-04-20 04:27 -37.67396 144.84305 442 ft 11 kts 352°
2026-04-20 04:27 -37.67291 144.84285 442 ft 18 kts 352°
2026-04-20 04:28 -37.67166 144.84262 442 ft 17 kts 351°
2026-04-20 04:28 -37.67044 144.84239 442 ft 17 kts 351°
2026-04-20 04:28 -37.66927 144.84216 442 ft 16 kts 352°
2026-04-20 04:28 -37.66815 144.84198 442 ft 16 kts 352°
2026-04-20 04:29 -37.66717 144.84199 442 ft 13 kts 33°
2026-04-20 04:29 -37.66689 144.84306 442 ft 13 kts 82°
2026-04-20 04:29 -37.66676 144.84421 442 ft 13 kts 81°
2026-04-20 04:29 -37.66662 144.84537 442 ft 13 kts 81°
2026-04-20 04:30 -37.66648 144.84654 442 ft 13 kts 81°
2026-04-20 04:30 -37.66628 144.84769 442 ft 13 kts 57°
2026-04-20 04:30 -37.66546 144.84801 442 ft 13 kts 346°
2026-04-20 04:30 -37.66456 144.84776 442 ft 13 kts 359°
2026-04-20 04:31 -37.66363 144.84784 442 ft 13 kts
2026-04-20 04:31 -37.66272 144.84795 442 ft 13 kts
2026-04-20 04:31 -37.66227 144.84775 442 ft 3 kts 264°
2026-04-20 04:31 -37.66225 144.84720 442 ft 15 kts 273°
2026-04-20 04:32 -37.66192 144.84218 442 ft 98 kts 273°
2026-04-20 04:32 -37.66127 144.83067 450 ft 162 kts 270°
2026-04-20 04:32 -37.66064 144.81576 1001 ft 172 kts 270°
2026-04-20 04:32 -37.65985 144.80096 1797 ft 172 kts 272°
2026-04-20 04:33 -37.65879 144.78616 2523 ft 174 kts 274°
2026-04-20 04:33 -37.65741 144.77022 2956 ft 192 kts 275°
2026-04-20 04:33 -37.65611 144.75305 3449 ft 207 kts 273°
2026-04-20 04:33 -37.65523 144.73407 3956 ft 224 kts 273°
2026-04-20 04:34 -37.65481 144.71353 4357 ft 247 kts 263°
2026-04-20 04:34 -37.66081 144.69260 4903 ft 266 kts 235°
2026-04-20 04:34 -37.67462 144.67703 5737 ft 272 kts 213°
2026-04-20 04:34 -37.69068 144.66467 6665 ft 273 kts 212°
2026-04-20 04:35 -37.70687 144.65240 7524 ft 275 kts 212°
2026-04-20 04:35 -37.72351 144.64085 8349 ft 278 kts 201°
2026-04-20 04:35 -37.74244 144.63768 9123 ft 284 kts 174°
2026-04-20 04:35 -37.76116 144.64587 9923 ft 289 kts 152°
2026-04-20 04:36 -37.79654 144.67271 10949 ft 313 kts 150°
2026-04-20 04:36 -37.81551 144.68726 11264 ft 331 kts 151°
2026-04-20 04:36 -37.83585 144.70273 11610 ft 347 kts 151°
2026-04-20 04:37 -37.85659 144.71845 12219 ft 353 kts 151°
2026-04-20 04:37 -37.87769 144.73442 12953 ft 356 kts 152°
2026-04-20 04:37 -37.89897 144.75050 13648 ft 359 kts 152°
2026-04-20 04:37 -37.92046 144.76672 14333 ft 362 kts 152°
2026-04-20 04:38 -37.94201 144.78297 15057 ft 363 kts 152°
2026-04-20 04:38 -37.96360 144.79925 15743 ft 365 kts 152°
2026-04-20 04:38 -37.98535 144.81566 16390 ft 367 kts 152°
2026-04-20 04:38 -38.00725 144.83218 17023 ft 370 kts 152°
2026-04-20 04:39 -38.02935 144.84888 17676 ft 371 kts 152°
2026-04-20 04:39 -38.05139 144.86554 18357 ft 371 kts 152°
2026-04-20 04:39 -38.07338 144.88216 18961 ft 373 kts 152°
2026-04-20 04:39 -38.09567 144.89902 19547 ft 375 kts 152°
2026-04-20 04:40 -38.11777 144.91574 20124 ft 376 kts 152°
2026-04-20 04:40 -38.14045 144.93292 20703 ft 378 kts 152°
2026-04-20 04:40 -38.16297 144.95000 21260 ft 380 kts 152°
2026-04-20 04:40 -38.18536 144.96699 21798 ft 381 kts 152°
2026-04-20 04:41 -38.20808 144.98425 22327 ft 383 kts 152°
2026-04-20 04:41 -38.23095 145.00163 22842 ft 385 kts 152°
2026-04-20 04:41 -38.25386 145.01906 23341 ft 387 kts 152°
2026-04-20 04:41 -38.27710 145.03676 23812 ft 389 kts 152°
2026-04-20 04:42 -38.30024 145.05441 24247 ft 391 kts 152°
2026-04-20 04:42 -38.32357 145.07220 24672 ft 394 kts 152°
2026-04-20 04:42 -38.34705 145.09015 25087 ft 396 kts 152°
2026-04-20 04:42 -38.37061 145.10814 25488 ft 399 kts 152°
2026-04-20 04:43 -38.39429 145.12625 25875 ft 401 kts 152°
2026-04-20 04:43 -38.41837 145.14467 26254 ft 403 kts 152°
2026-04-20 04:43 -38.44232 145.16301 26616 ft 405 kts 152°
2026-04-20 04:43 -38.46642 145.18147 26967 ft 407 kts 152°
2026-04-20 04:44 -38.49114 145.19928 27308 ft 408 kts 156°
2026-04-20 04:44 -38.51642 145.21478 27637 ft 408 kts 160°
2026-04-20 04:44 -38.54287 145.22835 27961 ft 409 kts 163°
2026-04-20 04:44 -38.56940 145.24026 28276 ft 410 kts 164°
2026-04-20 04:45 -38.59661 145.25221 28585 ft 412 kts 164°
2026-04-20 04:45 -38.62342 145.26395 28916 ft 413 kts 164°
2026-04-20 04:45 -38.65069 145.27589 29243 ft 414 kts 164°
2026-04-20 04:45 -38.67776 145.28780 29525 ft 415 kts 164°
2026-04-20 04:46 -38.70518 145.29987 29793 ft 417 kts 164°
2026-04-20 04:46 -38.73239 145.31186 30055 ft 418 kts 164°
2026-04-20 04:46 -38.75996 145.32405 30386 ft 418 kts 164°
2026-04-20 04:46 -38.78733 145.33618 30730 ft 417 kts 165°
2026-04-20 04:47 -38.81450 145.34821 31052 ft 417 kts 165°
2026-04-20 04:47 -38.84187 145.36032 31376 ft 416 kts 165°
2026-04-20 04:47 -38.86897 145.37233 31695 ft 415 kts 165°
2026-04-20 04:47 -38.89631 145.38446 32008 ft 414 kts 165°
2026-04-20 04:48 -38.92350 145.39653 32308 ft 414 kts 165°
2026-04-20 04:48 -38.95045 145.40851 32595 ft 413 kts 165°
2026-04-20 04:48 -38.97755 145.42056 32875 ft 412 kts 165°
2026-04-20 04:48 -39.00430 145.43247 33141 ft 411 kts 165°
2026-04-20 04:49 -39.03138 145.44453 33402 ft 411 kts 165°
2026-04-20 04:49 -39.05805 145.45642 33633 ft 411 kts 165°
2026-04-20 04:49 -39.08517 145.46852 33828 ft 411 kts 165°
2026-04-20 04:49 -39.11195 145.48047 34009 ft 412 kts 165°
2026-04-20 04:50 -39.13908 145.49260 34204 ft 413 kts 165°
2026-04-20 04:50 -39.16619 145.50472 34393 ft 413 kts 165°
2026-04-20 04:50 -39.19331 145.51686 34574 ft 414 kts 165°
2026-04-20 04:50 -39.22013 145.52887 34746 ft 415 kts 165°
2026-04-20 04:51 -39.24733 145.54106 34916 ft 415 kts 165°
2026-04-20 04:51 -39.27470 145.55337 35077 ft 416 kts 165°
2026-04-20 04:51 -39.30189 145.56560 35216 ft 417 kts 165°
2026-04-20 04:52 -39.35926 145.59137 35285 ft 418 kts 165°
2026-04-20 04:52 -39.41699 145.61737 35288 ft 418 kts 165°
2026-04-20 04:53 -39.47477 145.64345 35288 ft 418 kts 165°
2026-04-20 04:53 -39.53271 145.66965 35288 ft 419 kts 165°
2026-04-20 04:54 -39.59039 145.69579 35288 ft 419 kts 165°
2026-04-20 04:54 -39.64834 145.72208 35288 ft 419 kts 165°
2026-04-20 04:55 -39.70496 145.74782 35288 ft 419 kts 165°
2026-04-20 04:55 -39.76156 145.77359 35289 ft 416 kts 165°
2026-04-20 04:56 -39.81841 145.79956 35288 ft 417 kts 165°
2026-04-20 04:56 -39.87418 145.82504 35290 ft 417 kts 165°
2026-04-20 04:57 -39.93080 145.85100 35302 ft 417 kts 165°
2026-04-20 04:57 -39.98713 145.87685 35309 ft 417 kts 165°
2026-04-20 04:58 -40.04419 145.90311 35313 ft 417 kts 165°
2026-04-20 04:58 -40.10110 145.92943 35314 ft 417 kts 165°
2026-04-20 04:59 -40.15746 145.95558 35315 ft 417 kts 165°
2026-04-20 04:59 -40.21431 145.98201 35315 ft 417 kts 165°
2026-04-20 05:00 -40.27088 146.00838 35313 ft 417 kts 165°
2026-04-20 05:00 -40.32749 146.03479 35314 ft 419 kts 165°
2026-04-20 05:01 -40.38475 146.06155 35314 ft 419 kts 165°
2026-04-20 05:01 -40.44185 146.08830 35314 ft 419 kts 165°
2026-04-20 05:02 -40.49636 146.11388 35314 ft 419 kts 165°
2026-04-20 05:02 -40.55102 146.13959 35314 ft 419 kts 165°
2026-04-20 05:03 -40.60569 146.16534 35314 ft 419 kts 165°
2026-04-20 05:03 -40.66018 146.19107 35314 ft 419 kts 165°
2026-04-20 05:04 -40.71477 146.21686 35314 ft 418 kts 165°
2026-04-20 05:04 -40.76953 146.24271 35312 ft 419 kts 165°
2026-04-20 05:05 -40.82423 146.26860 35315 ft 419 kts 165°
2026-04-20 05:05 -40.87860 146.29443 35314 ft 418 kts 165°
2026-04-20 05:06 -40.93304 146.32034 35314 ft 418 kts 165°
2026-04-20 05:06 -40.96049 146.33342 35121 ft 418 kts 165°
2026-04-20 05:06 -40.98781 146.34647 34869 ft 416 kts 165°
2026-04-20 05:06 -41.01524 146.35957 34615 ft 413 kts 165°
2026-04-20 05:07 -41.04210 146.37242 34365 ft 411 kts 165°
2026-04-20 05:07 -41.06877 146.38519 34115 ft 409 kts 165°
2026-04-20 05:07 -41.09570 146.39809 33851 ft 409 kts 165°
2026-04-20 05:07 -41.12245 146.41090 33488 ft 410 kts 165°
2026-04-20 05:08 -41.14957 146.42394 33001 ft 411 kts 164°
2026-04-20 05:08 -41.17601 146.43796 32414 ft 414 kts 162°
2026-04-20 05:08 -41.20237 146.45384 31777 ft 416 kts 160°
2026-04-20 05:08 -41.22845 146.47017 31116 ft 417 kts 160°
2026-04-20 05:09 -41.25484 146.48680 30430 ft 419 kts 160°
2026-04-20 05:09 -41.28125 146.50351 29722 ft 421 kts 160°
2026-04-20 05:09 -41.30769 146.52023 29188 ft 418 kts 160°
2026-04-20 05:09 -41.33370 146.53668 28695 ft 415 kts 160°
2026-04-20 05:10 -41.35974 146.55316 28215 ft 411 kts 160°
2026-04-20 05:10 -41.38561 146.56955 27740 ft 407 kts 160°
2026-04-20 05:10 -41.41121 146.58577 27271 ft 404 kts 160°
2026-04-20 05:10 -41.43635 146.60172 26808 ft 401 kts 160°
2026-04-20 05:11 -41.46128 146.61754 26348 ft 397 kts 159°
2026-04-20 05:11 -41.48619 146.63336 25886 ft 394 kts 159°
2026-04-20 05:11 -41.51099 146.64914 25423 ft 391 kts 159°
2026-04-20 05:11 -41.53545 146.66470 24959 ft 388 kts 159°
2026-04-20 05:12 -41.55959 146.68008 24500 ft 386 kts 159°
2026-04-20 05:12 -41.58387 146.69557 24038 ft 383 kts 159°
2026-04-20 05:12 -41.60791 146.71091 23581 ft 380 kts 159°
2026-04-20 05:12 -41.63159 146.72603 23126 ft 378 kts 159°
2026-04-20 05:13 -41.65535 146.74121 22651 ft 376 kts 158°
2026-04-20 05:13 -41.67898 146.75638 22139 ft 376 kts 158°
2026-04-20 05:13 -41.70235 146.77144 21636 ft 375 kts 158°
2026-04-20 05:13 -41.72601 146.78671 21120 ft 374 kts 158°
2026-04-20 05:14 -41.74936 146.80180 20604 ft 374 kts 158°
2026-04-20 05:14 -41.77268 146.81691 20074 ft 374 kts 158°
2026-04-20 05:14 -41.79622 146.83215 19527 ft 374 kts 158°
2026-04-20 05:14 -41.81955 146.84727 19000 ft 374 kts 158°
2026-04-20 05:15 -41.84301 146.86249 18480 ft 373 kts 158°
2026-04-20 05:15 -41.86641 146.87769 17970 ft 372 kts 157°
2026-04-20 05:15 -41.88941 146.89264 17484 ft 371 kts 157°
2026-04-20 05:15 -41.91256 146.90770 17010 ft 369 kts 157°
2026-04-20 05:16 -41.93556 146.92268 16544 ft 367 kts 157°
2026-04-20 05:16 -41.95845 146.93761 16081 ft 365 kts 157°
2026-04-20 05:16 -41.98151 146.95265 15590 ft 364 kts 156°
2026-04-20 05:16 -42.00400 146.96733 15114 ft 363 kts 156°
2026-04-20 05:17 -42.02671 146.98218 14644 ft 361 kts 156°
2026-04-20 05:17 -42.04946 146.99704 14174 ft 359 kts 156°
2026-04-20 05:17 -42.07168 147.01161 13854 ft 352 kts 156°
2026-04-20 05:17 -42.09322 147.02576 13723 ft 339 kts 156°
2026-04-20 05:18 -42.11411 147.03947 13586 ft 327 kts 156°
2026-04-20 05:18 -42.13414 147.05264 13452 ft 316 kts 156°
2026-04-20 05:18 -42.15370 147.06547 13327 ft 304 kts 157°
2026-04-20 05:18 -42.17271 147.07582 13314 ft 287 kts 165°
2026-04-20 05:19 -42.19167 147.08246 12957 ft 285 kts 171°
2026-04-20 05:19 -42.21117 147.08730 12491 ft 286 kts 173°
2026-04-20 05:19 -42.23076 147.09181 12070 ft 285 kts 173°
2026-04-20 05:19 -42.24998 147.09628 11676 ft 284 kts 172°
2026-04-20 05:20 -42.26951 147.10092 11283 ft 282 kts 172°
2026-04-20 05:20 -42.28871 147.10553 10906 ft 280 kts 172°
2026-04-20 05:20 -42.30774 147.11014 10540 ft 278 kts 172°
2026-04-20 05:20 -42.32702 147.11482 10172 ft 275 kts 172°
2026-04-20 05:21 -42.34619 147.11948 9806 ft 273 kts 172°
2026-04-20 05:21 -42.36565 147.12421 9439 ft 270 kts 172°
2026-04-20 05:21 -42.38424 147.12872 9096 ft 267 kts 172°
2026-04-20 05:21 -42.40240 147.13313 8744 ft 267 kts 172°
2026-04-20 05:22 -42.42054 147.13754 8352 ft 267 kts 172°
2026-04-20 05:22 -42.43890 147.14201 7962 ft 265 kts 172°
2026-04-20 05:22 -42.45686 147.14641 7573 ft 262 kts 172°
2026-04-20 05:22 -42.47462 147.15074 7191 ft 259 kts 171°
2026-04-20 05:23 -42.49240 147.15509 6809 ft 255 kts 171°
2026-04-20 05:23 -42.50968 147.15932 6437 ft 251 kts 171°
2026-04-20 05:23 -42.52654 147.16446 6064 ft 250 kts 163°
2026-04-20 05:23 -42.54274 147.17328 5742 ft 249 kts 155°
2026-04-20 05:24 -42.55808 147.18376 5466 ft 246 kts 153°
2026-04-20 05:24 -42.57298 147.19432 5255 ft 236 kts 153°
2026-04-20 05:24 -42.58717 147.20436 4972 ft 225 kts 153°
2026-04-20 05:24 -42.60096 147.21403 4657 ft 224 kts 154°
2026-04-20 05:25 -42.61490 147.22377 4387 ft 221 kts 154°
2026-04-20 05:25 -42.62811 147.23386 4212 ft 218 kts 146°
2026-04-20 05:25 -42.64008 147.24681 4213 ft 220 kts 140°
2026-04-20 05:25 -42.65138 147.26082 4208 ft 220 kts 137°
2026-04-20 05:26 -42.66244 147.27530 4212 ft 220 kts 136°
2026-04-20 05:26 -42.67295 147.28944 4227 ft 206 kts 136°
2026-04-20 05:26 -42.68290 147.30301 3974 ft 198 kts 136°
2026-04-20 05:26 -42.69244 147.31607 3726 ft 190 kts 136°
2026-04-20 05:27 -42.70148 147.32844 3491 ft 184 kts 136°
2026-04-20 05:27 -42.71054 147.34084 3266 ft 185 kts 136°
2026-04-20 05:27 -42.71957 147.35318 3033 ft 184 kts 136°
2026-04-20 05:27 -42.72852 147.36540 2797 ft 182 kts 136°
2026-04-20 05:28 -42.73754 147.37769 2553 ft 181 kts 136°
2026-04-20 05:28 -42.74631 147.38965 2312 ft 180 kts 136°
2026-04-20 05:28 -42.75510 147.40161 2068 ft 178 kts 136°
2026-04-20 05:28 -42.76386 147.41353 1853 ft 173 kts 136°
2026-04-20 05:29 -42.77197 147.42458 1606 ft 160 kts 136°
2026-04-20 05:29 -42.77949 147.43481 1376 ft 144 kts 136°
2026-04-20 05:29 -42.78646 147.44428 1178 ft 140 kts 136°
2026-04-20 05:29 -42.79326 147.45351 1012 ft 139 kts 136°
2026-04-20 05:30 -42.80015 147.46284 839 ft 139 kts 136°
2026-04-20 05:30 -42.80696 147.47214 655 ft 139 kts 135°
2026-04-20 05:30 -42.81385 147.48154 468 ft 139 kts 135°
2026-04-20 05:30 -42.82067 147.49085 272 ft 138 kts 136°
2026-04-20 05:31 -42.82742 147.49997 81 ft 137 kts 135°
2026-04-20 05:31 -42.83376 147.50862 21 ft 109 kts 135°
2026-04-20 05:31 -42.83798 147.51425 21 ft 59 kts 136°
2026-04-20 05:31 -42.83962 147.51668 21 ft 10 kts 129°
2026-04-20 05:32 -42.84010 147.51721 21 ft 7 kts 202°
2026-04-20 05:32 -42.83988 147.51677 21 ft 7 kts 320°
2026-04-20 05:32 -42.83946 147.51623 21 ft 8 kts 316°
2026-04-20 05:32 -42.83892 147.51550 21 ft 12 kts 315°
2026-04-20 05:33 -42.83819 147.51450 21 ft 16 kts 315°
2026-04-20 05:33 -42.83766 147.51338 21 ft 13 kts 255°
2026-04-20 05:33 -42.83832 147.51242 21 ft 14 kts 225°
2026-04-20 05:33 -42.83850 147.51131 21 ft 14 kts 307°
2026-04-20 05:34 -42.83782 147.51038 21 ft 13 kts 315°
2026-04-20 05:34 -42.83713 147.50944 21 ft 13 kts 315°
2026-04-20 05:34 -42.83721 147.50748 21 ft 9 kts 258°
2026-04-20 05:35 -42.83729 147.50697 21 ft 0 kts 258°